Weather History for KLLJ - January, 2013

Change the Weather History Date:

Tuesday, January 29, 2013

  Actual Average Record
Temperature  
Mean Temperature 22 °F 21 °F  
Max Temperature 31 °F 31 °F 53 °F (1954)
Min Temperature 12 °F 10 °F -27 °F (1951)
Degree Days  
Heating Degree Days 43 44  
Month to date heating degree days 1497 1338  
Since 1 July heating degree days 4563 4834  
Cooling Degree Days 0 0  
Month to date cooling degree days 0 0  
Year to date cooling degree days 0 0  
Moisture  
Dew Point 13 °F    
Average Humidity 67    
Maximum Humidity 80    
Minimum Humidity 53    
Precipitation  
Precipitation T in 0.01 in 0.18 in (1927)
Month to date precipitation 0.21 0.48  
Year to date precipitation 0.21 0.48  
Sea Level Pressure  
Sea Level Pressure 29.99 in    
Wind  
Wind Speed 2 mph (South)    
Max Wind Speed 14 mph    
Max Gust Speed 16 mph    
Visibility 8 miles    
Events Snow    
T = Trace of Precipitation, MM = Missing Value Source: NWS Daily Summary

Daily Weather History Graph

Daily Weather History Graph

Search for Another Location

Airport or City:

Trip Planner

Search our weather history database for the weather conditions in past years. The results will help you decide how hot, cold, wet, or windy it might be!

Date:

Astronomy

Jan. 29, 2013 Rise Set
Actual Time 7:58 AM MST 5:42 PM MST
Civil Twilight 7:27 AM MST 6:13 PM MST
Nautical Twilight 6:52 AM MST 6:48 PM MST
Astronomical Twilight 6:17 AM MST 7:22 PM MST
Moon 8:52 PM MST (1/29) 8:49 AM MST (1/29)
Length of Visible Light 10h 46m
Length of Day
9h 43m
Waning Gibbous, 93% of the Moon is Illuminated
Jan 29
Waning Gibbous
Feb 3
Last Quarter
Feb 10
New
Feb 17
First Quarter
Feb 25
Full

Hourly Weather History & Observations

Time (MST) Temp. Windchill Dew Point Humidity Pressure Visibility Wind Dir Wind Speed Gust Speed Precip Events Conditions
12:55 AM 16.0 °F - 9.0 °F 74% 29.88 in 10.0 mi Calm Calm - N/A   Overcast
1:55 AM 15.1 °F - 8.1 °F 74% 29.86 in 10.0 mi Calm Calm - N/A   Overcast
2:55 AM 17.1 °F - 9.0 °F 71% 29.85 in 10.0 mi Calm Calm - N/A   Overcast
3:55 AM 19.0 °F - 10.9 °F 71% 29.84 in 10.0 mi Calm Calm - N/A   Overcast
5:55 AM 18.0 °F - 10.9 °F 74% 29.88 in 10.0 mi Calm Calm - N/A   Overcast
6:55 AM 15.1 °F - 10.0 °F 80% 29.92 in 10.0 mi Calm Calm - N/A   Overcast
7:55 AM 18.0 °F - 12.0 °F 78% 29.94 in 10.0 mi Calm Calm - N/A   Overcast
8:10 AM 19.4 °F - 12.2 °F 74% 29.81 in 1.8 mi Calm Calm - 0.00 in Snow Light Snow
8:17 AM 19.4 °F - 12.2 °F 74% 29.81 in 1.0 mi Calm Calm - 0.00 in Snow Light Snow
8:24 AM 17.6 °F - 12.2 °F 79% 29.82 in 0.8 mi Calm Calm - 0.00 in Snow Light Snow
8:37 AM 17.6 °F - 12.2 °F 79% 29.83 in 1.5 mi Calm Calm - 0.00 in Snow Light Snow
8:55 AM 16.0 °F 10.4 °F 12.0 °F 84% 29.99 in 2.0 mi South 3.5 mph - 0.00 in Snow Light Snow
9:10 AM 15.8 °F 10.2 °F 10.4 °F 79% 29.85 in 1.8 mi South 3.5 mph - 0.00 in   Mostly Cloudy
9:14 AM 15.8 °F 10.2 °F 12.2 °F 86% 29.85 in 2.5 mi South 3.5 mph - 0.00 in   Mostly Cloudy
9:21 AM 17.6 °F - 12.2 °F 79% 29.85 in 3.0 mi Calm Calm - 0.00 in   Haze
9:55 AM 19.0 °F - 12.0 °F 74% 30.02 in 9.0 mi Calm Calm - 0.00 in   Mostly Cloudy
10:55 AM 21.0 °F - 15.1 °F 78% 30.02 in 10.0 mi Calm Calm - N/A   Overcast
11:55 AM 24.1 °F - 16.0 °F 71% 30.04 in 8.0 mi Calm Calm - N/A   Overcast
12:55 PM 25.0 °F - 17.1 °F 72% 30.05 in 10.0 mi Calm Calm - N/A   Overcast
1:55 PM 26.1 °F 21.9 °F 17.1 °F 69% 30.06 in 10.0 mi South 3.5 mph - N/A   Overcast
2:55 PM 30.9 °F 21.7 °F 15.1 °F 52% 30.06 in 10.0 mi North 11.5 mph - N/A   Overcast
3:55 PM 28.9 °F 21.1 °F 16.0 °F 58% 30.09 in 10.0 mi NW 8.1 mph - N/A   Overcast
4:55 PM 28.9 °F 25.2 °F 16.0 °F 58% 30.13 in 10.0 mi NNW 3.5 mph - N/A   Overcast
5:55 PM 28.0 °F - 14.0 °F 56% 30.14 in 10.0 mi Calm Calm - N/A   Overcast
6:55 PM 27.0 °F 23.0 °F 14.0 °F 58% 30.17 in 10.0 mi SSE 3.5 mph - N/A   Overcast
7:55 PM 26.1 °F 19.4 °F 15.1 °F 63% 30.18 in 10.0 mi SSE 5.8 mph - N/A   Overcast
8:55 PM 25.0 °F 20.7 °F 14.0 °F 63% 30.20 in 10.0 mi South 3.5 mph - N/A   Overcast
9:55 PM 25.0 °F - 12.9 °F 60% 30.18 in 10.0 mi Calm Calm - N/A   Overcast
10:55 PM 24.1 °F 19.7 °F 12.9 °F 62% 30.17 in 10.0 mi NW 3.5 mph - N/A   Overcast
11:55 PM 23.0 °F - 14.0 °F 68% 30.17 in 10.0 mi Calm Calm - N/A   Overcast